Regional Weather Roundup
Issued by NWS New Orleans/Baton Rouge, LA

Home | Current Version | Previous Version | Text Only | Print | Product List | Glossary On
Versions: 1 2 3 4 5 6 7 8 9 10 11 12 13 14 15 16 17 18 19 20 21 22 23 24 25 26 27 28 29 30 31 32 33 34 35 36 37 38 39 40 41 42 43 44 45 46 47 48 49 50
864
ASUS44 KLIX 310305
RWRLIX
NEW ORLEANS REGIONAL WEATHER ROUNDUP
NATIONAL WEATHER SERVICE NEW ORLEANS LA
1000 PM CDT SAT AUG 30 2014

NOTE: "FAIR" INDICATES FEW OR NO CLOUDS BELOW 12,000 FEET WITH NO
      SIGNIFICANT WEATHER AND/OR OBSTRUCTIONS TO VISIBILITY.
      SKY/WX - SKY CONDITION AND SIGNIFICANT WEATHER.
      TMP - AIR TEMPERATURE.     DP    - DEWPOINT TEMPERATURE.
      RH  - RELATIVE HUMIDITY.   PRES  - PRESSURE.
      HI  - HEAT INDEX.          WCI   - WIND CHILL INDEX.

*  THESE STATIONS ARE NOT NWS OR FAA STATIONS AND ARE NOT UNDER
   NWS QUALITY CONTROL.

LAZ038-040-048-061>063-065>067-069-310400-
SOUTHEAST LOUISIANA

CITY           SKY/WX    TMP DP  RH WIND       PRES   REMARKS
N.O. AUDUBON     N/A     76  76  98 MISG        N/A
N.O. INTL ARPT CLOUDY    76  73  91 S3        30.06R
N.O. LAKEFRONT CLOUDY    76  73  91 S6        30.07R
N.O. DOWNTOWN*   N/A     91  70  49 CALM      30.07R HX  97
SLIDELL        CLOUDY    75  73  93 CALM      30.07R
BATON ROUGE    CLOUDY    74  72  93 S7        30.03R
BOOTHVILLE     CLOUDY    83  80  91 SE5       30.07R HX  95
BELLE CHASSE   CLOUDY    76  72  87 CALM      30.05R
BOGALUSA*        N/A     76  72  87 SE5       30.07R
GALLIANO*      NOT AVBL
NEW ROADS*       N/A     73  73  98 MISG      30.02S
GONZALES*        N/A     74  74 100 SE5       30.04S
HAMMOND*       CLOUDY    73  72  94 CALM      30.07R
HOUMA*         CLOUDY    74  71  91 CALM      30.06S
PORT FOURCHON* MOCLDY    79  73  83 NW6       30.08R

$$

MSZ070-080>082-310400-
SOUTHERN MISSISSIPPI

CITY           SKY/WX    TMP DP  RH WIND       PRES   REMARKS
MCCOMB         CLOUDY    74  72  93 CALM      30.06R
GULFPORT       CLOUDY    76  74  93 CALM      30.06R
BILOXI         MOCLDY    76  74  91 E3        30.07R
PASCAGOULA     PTCLDY    74  73  97 CALM      30.08R

$$

COASTAL OBSERVATIONS
LAKE AND NEARSHORE STATIONS

STATION/POSITION TIME  TEMP    WIND        PRES    WAVE
                       AIR SEA DIR/SP/G            HT/PER
                 (UTC) (F)     (DEG/KT/KT) (MB)    (FT/S)
PASCAGOULA       0300   79      70/  2/  3 1017.9
WAVELAND YACHT   0300   78     330/  5/  9 1017.9
GRAND ISLE       0300   80 84  320/ 10/ 11 1018.6
SOUTHWEST PASS   0300   85 90  170/  7/  8 1018.3
NEW CANAL        0300   76 80  180/  2/  2 1018.3
SHELL BEACH      0300   80 80  290/  4/  5 1018.1

OFFSHORE STATIONS

STATION/POSITION TIME  TEMP    WIND        PRES    WAVE
                       AIR SEA DIR/SP/G            HT/PER
                 (UTC) (F)     (DEG/KT/KT) (MB)    (FT/S)
64 S DAUPHIN ISL 0151   85 85  150/ 10/ 10 1018.6

$$




USA.gov is the U.S. government's official web portal to all federal, state and local government web resources and services.